DW3693 Weather Reports


Display with metric or nautical units.
time (UTC)temp
F
wind
direction
speed
MPH
gust
MPH
rain 1hr
in
rain 24hr
in
rain mn
in
humidity
%
barometer
mb
20260901032021 68 0.0 0.0 0.00 0.00 0.00 52 1006.6
20260901031016 68 0.0 0.0 0.00 0.00 0.00 50 1006.6
20260901030036 68 0.0 0.0 0.00 0.00 0.00 52 1006.8
20260901025021 69 0.0 0.0 0.00 0.00 0.00 47 1006.6
20260901024015 70 180 1.0 1.0 0.00 0.00 0.00 46 1006.5
20260901023017 71 180 1.0 2.0 0.00 0.00 0.00 45 1006.3
20260901022023 71 180 1.0 2.0 0.00 0.00 0.00 45 1006.2
20260901021017 72 180 1.0 2.0 0.00 0.00 0.00 43 1006.2
20260901020023 73 180 1.0 2.0 0.00 0.00 0.00 44 1006.3
20260901015023 75 180 1.0 2.0 0.00 0.00 0.00 44 1006.3
20260901014017 76 0.0 1.0 0.00 0.00 0.00 39 1006.4
20260901013019 79 0.0 0.0 0.00 0.00 0.00 34 1006.6
20260901012037 82 0.0 1.0 0.00 0.00 0.00 28 1006.6
20260901011022 82 0.0 1.0 0.00 0.00 0.00 29 1006.7
20260901010017 82 0.0 2.0 0.00 0.00 0.00 28 1006.7
20260901005023 83 225 1.0 2.0 0.00 0.00 0.00 23 1006.8
20260901004017 84 0.0 2.0 0.00 0.00 0.00 27 1007.0
20260901003023 84 0.0 1.0 0.00 0.00 0.00 28 1007.1
20260901002017 85 225 1.0 2.0 0.00 0.00 0.00 21 1007.2
20260901001024 85 45 1.0 2.0 0.00 0.00 0.00 24 1007.2
20260901000023 85 293 2.0 4.0 0.00 0.00 0.00 24 1007.2
20260831235020 85 45 1.0 2.0 0.00 0.00 0.00 27 1007.4
20260831234022 86 45 1.0 2.0 0.00 0.00 0.00 22 1007.5
20260831233016 85 45 2.0 4.0 0.00 0.00 0.00 24 1007.6
20260831232022 86 113 1.0 3.0 0.00 0.00 0.00 23 1007.9
20260831231019 85 68 2.0 4.0 0.00 0.00 0.00 23 1007.9
20260831230016 85 158 1.0 2.0 0.00 0.00 0.00 24 1008.2
20260831225016 86 135 1.0 4.0 0.00 0.00 0.00 24 1008.3
20260831224023 84 135 1.0 3.0 0.00 0.00 0.00 25 1008.3
20260831223016 84 135 2.0 3.0 0.00 0.00 0.00 25 1008.6
20260831222036 84 180 1.0 5.0 0.00 0.00 0.00 25 1008.8
20260831221021 84 158 1.0 3.0 0.00 0.00 0.00 28 1008.9
20260831220016 84 90 1.0 4.0 0.00 0.00 0.00 27 1009.0
20260831215017 83 45 2.0 5.0 0.00 0.00 0.00 28 1009.3
20260831214022 83 90 3.0 6.0 0.00 0.00 0.00 26 1009.4
20260831213043 83 45 2.0 5.0 0.00 0.00 0.00 28 1009.5
20260831212036 83 135 2.0 4.0 0.00 0.00 0.00 28 1009.8
20260831211022 83 90 2.0 7.0 0.00 0.00 0.00 27 1010.0
20260831210015 82 90 2.0 5.0 0.00 0.00 0.00 29 1010.0
20260831205017 82 68 3.0 6.0 0.00 0.00 0.00 30 1010.3
20260831204017 81 135 2.0 7.0 0.00 0.00 0.00 31 1010.3
20260831203036 81 90 2.0 5.0 0.00 0.00 0.00 31 1010.5
20260831202022 81 113 2.0 5.0 0.00 0.00 0.00 32 1010.7
20260831201048 80 135 2.0 6.0 0.00 0.00 0.00 32 1010.9
20260831200048 80 135 2.0 6.0 0.00 0.00 0.00 33 1011.2
20260831195016 78 135 3.0 6.0 0.00 0.00 0.00 34 1011.2
20260831194016 79 68 3.0 6.0 0.00 0.00 0.00 33 1011.6
20260831193016 78 90 4.0 10.0 0.00 0.00 0.00 34 1011.6
20260831192016 77 45 3.0 7.0 0.00 0.00 0.00 35 1011.8
20260831191016 77 90 3.0 7.0 0.00 0.00 0.00 36 1012.1
20260831190016 76 113 2.0 4.0 0.00 0.00 0.00 40 1012.3
20260831185016 75 23 2.0 5.0 0.00 0.00 0.00 42 1012.3
20260831184117 74 68 2.0 6.0 0.00 0.00 0.00 45 1012.5
20260831183016 74 90 3.0 6.0 0.00 0.00 0.00 43 1012.7
20260831182016 74 23 2.0 6.0 0.00 0.00 0.00 45 1013.0
20260831181022 72 315 3.0 7.0 0.00 0.00 0.00 47 1013.1
20260831180046 70 23 3.0 7.0 0.00 0.00 0.00 52 1013.2
20260831175016 70 338 2.0 5.0 0.00 0.00 0.00 57 1013.3
20260831174016 69 45 2.0 6.0 0.00 0.00 0.00 58 1013.4
20260831173015 68 45 2.0 4.0 0.00 0.00 0.00 61 1013.5
20260831172023 66 23 2.0 5.0 0.00 0.00 0.00 66 1013.4
20260831171022 66 23 2.0 4.0 0.00 0.00 0.00 64 1013.5
20260831170017 64 90 1.0 3.0 0.00 0.00 0.00 65 1013.6
20260831165016 64 68 1.0 3.0 0.00 0.00 0.00 66 1013.7
20260831164015 62 68 1.0 2.0 0.00 0.00 0.00 68 1013.8
20260831163017 62 90 1.0 2.0 0.00 0.00 0.00 68 1014.0
20260831162015 62 90 1.0 2.0 0.00 0.00 0.00 69 1014.1
20260831161015 61 0.0 1.0 0.00 0.00 0.00 70 1014.1
20260831160016 60 90 1.0 3.0 0.00 0.00 0.00 69 1014.2
20260831155022 60 90 1.0 2.0 0.00 0.00 0.00 70 1014.3
20260831154015 59 90 1.0 3.0 0.00 0.00 0.00 72 1014.3
20260831153516 59 90 1.0 3.0 0.00 0.00 0.00 73 1014.3
20260831152547 58 0.0 0.0 0.00 0.00 0.00 77 1014.2
20260831151522 57 0.0 0.0 0.00 0.00 0.00 78 1014.2
20260831150515 56 0.0 0.0 0.00 0.00 0.00 81 1014.3
20260831145517 54 0.0 0.0 0.00 0.00 0.00 83 1014.1
20260831144517 53 0.0 0.0 0.00 0.00 0.00 86 1014.1
20260831143517 52 0.0 0.0 0.00 0.00 0.00 89 1014.0
20260831142517 50 0.0 0.0 0.00 0.00 0.00 90 1013.9
20260831141628 49 0.0 0.0 0.00 0.00 0.00 91 1014.0
20260831140517 49 0.0 0.0 0.00 0.00 0.00 91 1013.9
20260831135522 48 0.0 0.0 0.00 0.00 0.00 91 1013.9
20260831134523 48 0.0 0.0 0.00 0.00 0.00 91 1013.9
20260831133523 48 0.0 0.0 0.00 0.00 0.00 91 1013.9
20260831132548 48 0.0 0.0 0.00 0.00 0.00 91 1013.9
20260831131518 48 0.0 0.0 0.00 0.00 0.00 91 1013.8
20260831130522 48 0.0 0.0 0.00 0.00 0.00 91 1013.8
20260831125517 48 0.0 0.0 0.00 0.00 0.00 91 1013.9
20260831124517 48 0.0 0.0 0.00 0.00 0.00 90 1013.9
20260831123517 49 0.0 0.0 0.00 0.00 0.00 90 1013.7
20260831122517 49 0.0 0.0 0.00 0.00 0.00 90 1013.7
20260831121517 49 0.0 0.0 0.00 0.00 0.00 90 1013.7
20260831120517 49 0.0 0.0 0.00 0.00 0.00 89 1013.7
20260831115516 49 0.0 0.0 0.00 0.00 0.00 90 1013.7
20260831114517 50 0.0 0.0 0.00 0.00 0.00 89 1013.7
20260831113516 50 0.0 0.0 0.00 0.00 0.00 89 1013.9
20260831112517 50 0.0 0.0 0.00 0.00 0.00 89 1013.9
20260831111516 50 0.0 0.0 0.00 0.00 0.00 89 1013.7
20260831110517 50 0.0 0.0 0.00 0.00 0.00 89 1013.8
20260831105517 50 0.0 0.0 0.00 0.00 0.00 89 1013.8
20260831104517 51 0.0 0.0 0.00 0.00 0.00 89 1013.9
20260831103516 51 0.0 0.0 0.00 0.00 0.00 88 1013.9
20260831102517 51 0.0 0.0 0.00 0.00 0.00 88 1014.0
20260831101517 51 0.0 0.0 0.00 0.00 0.00 88 1013.9
20260831100517 51 0.0 0.0 0.00 0.00 0.00 88 1013.9
20260831095516 51 0.0 0.0 0.00 0.00 0.00 87 1014.1
20260831094516 51 0.0 0.0 0.00 0.00 0.00 87 1014.0
20260831093516 52 0.0 0.0 0.00 0.00 0.00 87 1014.2
20260831092540 52 0.0 0.0 0.00 0.00 0.00 87 1014.3
20260831091516 52 0.0 0.0 0.00 0.00 0.00 86 1014.3
20260831090516 52 0.0 0.0 0.00 0.00 0.00 86 1014.3
20260831085519 52 0.0 0.0 0.00 0.00 0.00 86 1014.2
20260831084524 53 0.0 0.0 0.00 0.00 0.00 86 1014.3
20260831083521 53 0.0 0.0 0.00 0.00 0.00 85 1014.3
20260831082521 53 0.0 0.0 0.00 0.00 0.00 85 1014.3
20260831081522 53 0.0 0.0 0.00 0.00 0.00 84 1014.4
20260831080547 54 0.0 0.0 0.00 0.00 0.00 84 1014.5
20260831075521 54 0.0 0.0 0.00 0.00 0.00 83 1014.6
20260831074522 55 0.0 0.0 0.00 0.00 0.00 82 1014.5
20260831073521 55 0.0 0.0 0.00 0.00 0.00 81 1014.5
20260831072546 55 0.0 0.0 0.00 0.00 0.00 81 1014.5
20260831071522 56 0.0 0.0 0.00 0.00 0.00 79 1014.5
20260831070522 57 0.0 0.0 0.00 0.00 0.00 79 1014.4
20260831065521 57 0.0 0.0 0.00 0.00 0.00 79 1014.5
20260831064521 57 0.0 0.0 0.00 0.00 0.00 79 1014.6
20260831063546 57 0.0 0.0 0.00 0.00 0.00 79 1014.6
20260831062547 58 0.0 0.0 0.00 0.00 0.00 80 1014.7
20260831061521 58 0.0 0.0 0.00 0.00 0.00 78 1014.7
20260831060522 59 0.0 0.0 0.00 0.00 0.00 78 1014.8
20260831055522 59 0.0 0.0 0.00 0.00 0.00 79 1014.7
20260831054522 60 0.0 0.0 0.00 0.00 0.00 79 1014.7
20260831053521 58 203 1.0 5.0 0.00 0.00 0.00 84 1014.9
20260831052537 57 158 1.0 3.0 0.00 0.00 0.00 84 1014.9
20260831051521 57 0.0 0.0 0.00 0.00 0.00 81 1014.9
20260831050521 60 0.0 0.0 0.00 0.00 0.00 74 1015.0
20260831045522 60 0.0 0.0 0.00 0.00 0.00 70 1015.0
20260831044521 61 0.0 0.0 0.00 0.00 0.00 69 1014.9
20260831043536 62 0.0 0.0 0.00 0.00 0.00 67 1014.9
20260831042516 63 0.0 0.0 0.00 0.00 0.00 65 1015.0
20260831041515 64 0.0 1.0 0.00 0.00 0.00 64 1014.8
20260831040516 65 0.0 2.0 0.00 0.00 0.00 62 1014.9
20260831035516 66 0.0 1.0 0.00 0.00 0.00 60 1015.0
20260831034556 67 158 2.0 8.0 0.00 0.00 0.00 58 1014.7
20260831033535 67 180 4.0 8.0 0.00 0.00 0.00 57 1014.7
20260831032515 67 248 2.0 10.0 0.00 0.00 0.00 57 1014.5